Meteorological map - weather stations in Středočeský
. The meteorological maps show weather information from WARIO weather stations| | Updates | Name | Status | Temperature | Humidity | Wind speed | Wind direction |
| 1.9.2026 01:19 | Vestec |  | 16.7 °C | 64.1 % | 5.6 m/s | NW |
| 1.9.2026 01:19 | Nupaky |  | 16.6 °C | 64.5 % | 3.5 m/s | SW |
| 1.9.2026 01:19 | Barochov |  | 15.9 °C | 76.3 % | 2.5 m/s | SW |
| 1.9.2026 01:19 | Beroun |  | 16.1 °C | 66.6 % | 2.2 m/s | W |
| 1.9.2026 01:19 | Beroun |  | 15.8 °C | 70.5 % | 1.4 m/s | SW |
| 1.9.2026 01:19 | Břešťany |  | 16.6 °C | 76.6 % | 1.8 m/s | E |
| 1.9.2026 01:19 | Černošice |  | 14.1 °C | 75.4 % | 0.7 m/s | S |
| 1.9.2026 01:19 | Chotětov |  | 15.4 °C | 78.8 % | 0.0 m/s | SW |
| 1.9.2026 01:19 | Přítoky |  | 17.1 °C | 65.1 % | 2.8 m/s | SE |
| 27.7.2026 01:28 | Milovice |  | 19.3 °C | 55.6 % | 0.0 m/s | N |
| 1.9.2026 01:20 | Žebrák |  | 15.5 °C | 69.8 % | 0.0 m/s | W |
| 1.9.2026 01:20 | Jiřetice |  | 16.0 °C | 73.3 % | 2.1 m/s | S |
| 1.9.2026 01:19 | Květnice |  | 16.5 °C | 63.6 % | 2.1 m/s | E |
| 1.9.2026 01:20 | Krušovice |  | 15.0 °C | 79.0 % | 1.9 m/s | SW |
| 1.9.2026 01:19 | Zdice |  | 15.9 °C | 68.6 % | 1.6 m/s | SW |
| 1.9.2026 01:19 | Měšice |  | 17.2 °C | 64.1 % | 3.1 m/s | W |
| 1.9.2026 01:19 | Vestec |  | 17.4 °C | 64.1 % | 3.5 m/s | W |
| 1.9.2026 01:19 | Jince |  | 15.3 °C | 73.1 % | 1.1 m/s | NW |
| 1.9.2026 01:19 | Osnice |  | 15.8 °C | 62.6 % | 1.3 m/s | W |
| 1.9.2026 01:20 | Srby |  | 14.8 °C | 72.5 % | 1.2 m/s | SW |
| 1.9.2026 01:19 | Sulice |  | 15.6 °C | 68.9 % | 2.1 m/s | SE |
| 1.9.2026 01:20 | Milín |  | 13.2 °C | 83.8 % | 0.8 m/s | W |
| 1.9.2026 01:19 | Líbeznice |  | 16.7 °C | 65.8 % | 4.2 m/s | W |
| 1.9.2026 01:20 | Mrač |  | 16.3 °C | 64.2 % | 1.9 m/s | W |
| 1.9.2026 01:19 | Orlov |  | 13.3 °C | 90.1 % | 1.8 m/s | NW |
| 1.9.2026 01:20 | Příbram |  | 14.4 °C | 67.6 % | 1.0 m/s | W |
| 1.9.2026 01:20 | Suchodol |  | 15.4 °C | 86.6 % | 2.0 m/s | SW |
| 1.9.2026 01:19 | Říčany |  | 15.7 °C | 72.7 % | 0.8 m/s | NW |
| 1.9.2026 01:20 | Střemy |  | 15.2 °C | 76.3 % | 1.5 m/s | W |
| 1.9.2026 01:19 | Toušice |  | 17.3 °C | 65.0 % | 0.0 m/s | NE |
| 1.9.2026 01:20 | Třebonín |  | 16.5 °C | 69.1 % | 0.8 m/s | S |
| 1.9.2026 01:19 | Třebsko |  | 12.7 °C | 73.5 % | 0.0 m/s | S |
| 1.9.2026 01:19 | Unhošť |  | 14.8 °C | 74.9 % | 0.6 m/s | S |
| 17.8.2026 14:51 | Všešímy |  | 20.3 °C | 84.7 % | 5.1 m/s | NE |
| 1.9.2026 01:19 | Všetaty |  | 17.3 °C | 64.7 % | 1.3 m/s | W |
| 1.9.2026 01:20 | Pravonín |  | 14.1 °C | 67.0 % | 1.7 m/s | NW |
| 1.9.2026 01:20 | Zápy |  | 16.9 °C | 68.1 % | 1.5 m/s | SW |
| 1.9.2026 01:19 | Zdice |  | 16.0 °C | 74.8 % | 2.1 m/s | SW |
| 1.9.2026 01:20 | Zibohlavy |  | 17.5 °C | 64.0 % | 0.0 m/s | S |
| 1.9.2026 01:19 | Zichovec |  | 15.7 °C | 63.1 % | 1.6 m/s | W |